Location: Los Gatos B&B
(42.6926°N, 77.0646°W)
Time: 05:56:19
(UTC-04:00)

Cosmos 2263 Rocket - Visible Passes

Search period start: 26 June 2016 00:00
Search period end: 06 July 2016 00:00
Orbit: 823 x 849 km, 71.0° (Epoch: 25 June)

Date Brightness Start Highest point End Pass type
(mag) Time Alt. Az. Time Alt. Az. Time Alt. Az.
26 Jun 3.0 01:51:58 34° SE 01:53:09 38° ESE 01:58:20 10° NE visible
26 Jun 3.3 03:33:39 19° WSW 03:37:05 34° NW 03:42:15 10° N visible
27 Jun 3.1 01:35:36 33° SE 01:36:29 35° ESE 01:41:35 10° NE visible
27 Jun 3.2 03:17:17 21° WSW 03:20:21 37° WNW 03:25:37 10° N visible
28 Jun 3.2 01:19:12 31° ESE 01:19:50 32° ESE 01:24:48 10° NE visible
28 Jun 3.1 03:00:53 25° WSW 03:03:38 39° WNW 03:08:58 10° N visible
29 Jun 3.3 01:02:46 29° ESE 01:03:11 29° ESE 01:08:02 10° NE visible
29 Jun 3.0 02:44:27 28° WSW 02:46:55 42° WNW 02:52:19 10° NNE visible
30 Jun 3.4 00:46:18 27° ESE 00:46:32 27° ESE 00:51:13 10° NE visible
30 Jun 2.9 02:27:59 31° WSW 02:30:11 46° WNW 02:35:40 10° NNE visible
01 Jul 3.5 00:29:49 25° ESE 00:29:54 25° ESE 00:34:25 10° NE visible
01 Jul 2.8 02:11:29 35° WSW 02:13:28 49° WNW 02:19:00 10° NNE visible
02 Jul 3.6 00:13:16 23° E 00:13:16 23° E 00:17:35 10° NE visible
02 Jul 2.7 01:54:57 38° WSW 01:56:45 53° WNW 02:02:20 10° NNE visible
02 Jul 4.7 03:41:01 10° NW 03:42:04 10° NW 03:43:07 10° NNW visible
02 Jul 3.7 23:56:42 21° E 23:56:42 21° E 00:00:44 10° NE visible
03 Jul 2.6 01:38:22 42° WSW 01:40:03 58° WNW 01:45:40 10° NNE visible
03 Jul 4.6 03:23:33 10° WNW 03:25:16 11° NW 03:26:59 10° NNW visible
03 Jul 3.7 23:40:05 19° E 23:40:05 19° E 23:43:52 10° NE visible
04 Jul 2.5 01:21:45 45° WSW 01:23:20 63° WNW 01:29:00 10° NNE visible
04 Jul 4.6 03:06:19 10° WNW 03:08:29 12° NW 03:10:38 10° NNW visible
04 Jul 3.8 23:23:25 18° E 23:23:25 18° E 23:26:59 10° ENE visible
05 Jul 2.4 01:05:06 47° SW 01:06:38 68° WNW 01:12:19 10° NNE visible
05 Jul 4.6 02:49:09 10° WNW 02:51:41 13° NW 02:54:13 10° NNW visible
05 Jul 3.9 23:06:43 16° E 23:06:43 16° E 23:10:02 10° ENE visible
